TimeMDT,TemperatureF,Dew PointF,Humidity,Sea Level PressureIn,VisibilityMPH,Wind Direction,Wind SpeedMPH,Gust SpeedMPH,PrecipitationIn,Events,Conditions,WindDirDegrees,DateUTC
12:15 AM,33.8,10.4,38,30.18,10.0,NNW,4.6,-,N/A,,Clear,340,2012-10-09 06:15:00
12:55 AM,30.2,10.4,44,30.19,10.0,Calm,Calm,-,N/A,,Clear,0,2012-10-09 06:55:00
1:15 AM,30.2,10.4,44,30.18,10.0,Calm,Calm,-,N/A,,Clear,0,2012-10-09 07:15:00
1:55 AM,28.4,10.4,47,30.18,10.0,East,5.8,-,N/A,,Clear,100,2012-10-09 07:55:00
2:15 AM,28.4,8.6,43,30.19,10.0,ENE,3.5,-,N/A,,Clear,60,2012-10-09 08:15:00
2:35 AM,26.6,6.8,43,30.18,10.0,ESE,4.6,-,N/A,,Clear,120,2012-10-09 08:35:00
2:55 AM,24.8,8.6,50,30.19,10.0,Calm,Calm,-,N/A,,Clear,0,2012-10-09 08:55:00
3:15 AM,24.8,8.6,50,30.19,10.0,East,3.5,-,N/A,,Clear,90,2012-10-09 09:15:00
3:35 AM,24.8,10.4,54,30.18,10.0,Calm,Calm,-,N/A,,Clear,0,2012-10-09 09:35:00
3:55 AM,24.8,10.4,54,30.18,10.0,Calm,Calm,-,N/A,,Clear,0,2012-10-09 09:55:00
4:15 AM,26.6,8.6,47,30.18,10.0,Calm,Calm,-,N/A,,Clear,0,2012-10-09 10:15:00
4:35 AM,23.0,6.8,50,30.19,10.0,ENE,3.5,-,N/A,,Clear,60,2012-10-09 10:35:00
4:55 AM,23.0,10.4,59,30.19,10.0,ESE,3.5,-,N/A,,Clear,110,2012-10-09 10:55:00
5:15 AM,21.2,8.6,58,30.20,10.0,Calm,Calm,-,N/A,,Partly Cloudy,0,2012-10-09 11:15:00
5:35 AM,23.0,8.6,54,30.21,10.0,Calm,Calm,-,N/A,,Partly Cloudy,0,2012-10-09 11:35:00
5:55 AM,23.0,8.6,54,30.21,10.0,Calm,Calm,-,N/A,,Clear,0,2012-10-09 11:55:00
6:15 AM,23.0,10.4,59,30.22,10.0,Calm,Calm,-,N/A,,Clear,0,2012-10-09 12:15:00
6:35 AM,21.2,10.4,63,30.22,10.0,Calm,Calm,-,N/A,,Clear,0,2012-10-09 12:35:00
6:55 AM,21.2,10.4,63,30.22,10.0,Calm,Calm,-,N/A,,Clear,0,2012-10-09 12:55:00
7:15 AM,21.2,8.6,58,30.23,7.0,Calm,Calm,-,N/A,,Clear,0,2012-10-09 13:15:00
7:35 AM,21.2,10.4,63,30.23,10.0,North,3.5,-,N/A,,Clear,350,2012-10-09 13:35:00
7:55 AM,24.8,12.2,59,30.23,10.0,Calm,Calm,-,N/A,,Clear,0,2012-10-09 13:55:00
8:15 AM,24.8,10.4,54,30.24,10.0,Calm,Calm,-,N/A,,Clear,0,2012-10-09 14:15:00
8:35 AM,26.6,12.2,55,30.24,10.0,Calm,Calm,-,N/A,,Clear,0,2012-10-09 14:35:00
8:55 AM,30.2,10.4,44,30.24,10.0,Calm,Calm,-,N/A,,Clear,0,2012-10-09 14:55:00
9:15 AM,30.2,12.2,47,30.24,10.0,SSE,3.5,-,N/A,,Clear,150,2012-10-09 15:15:00
9:35 AM,33.8,12.2,41,30.23,10.0,Calm,Calm,-,N/A,,Clear,0,2012-10-09 15:35:00
9:55 AM,37.4,12.2,36,30.23,10.0,Calm,Calm,-,N/A,,Clear,0,2012-10-09 15:55:00
10:15 AM,39.2,10.4,31,30.23,10.0,Calm,Calm,-,N/A,,Clear,0,2012-10-09 16:15:00
10:35 AM,42.8,14.0,31,30.22,10.0,Calm,Calm,-,N/A,,Clear,0,2012-10-09 16:35:00
10:55 AM,46.4,14.0,27,30.21,10.0,Calm,Calm,-,N/A,,Clear,0,2012-10-09 16:55:00
11:15 AM,48.2,15.8,27,30.20,10.0,Calm,Calm,-,N/A,,Clear,0,2012-10-09 17:15:00
11:35 AM,51.8,17.6,26,30.19,10.0,ESE,3.5,-,N/A,,Clear,110,2012-10-09 17:35:00
11:55 AM,57.2,21.2,25,30.18,10.0,WSW,10.4,-,N/A,,Clear,240,2012-10-09 17:55:00
12:15 PM,62.6,19.4,19,30.17,10.0,WSW,18.4,23.0,N/A,,Clear,240,2012-10-09 18:15:00
12:35 PM,62.6,19.4,19,30.17,10.0,WSW,18.4,26.5,N/A,,Clear,250,2012-10-09 18:35:00
12:55 PM,62.6,17.6,18,30.16,10.0,West,18.4,33.4,N/A,,Clear,270,2012-10-09 18:55:00
1:15 PM,64.4,17.6,16,30.16,10.0,West,17.3,24.2,N/A,,Clear,270,2012-10-09 19:15:00
1:35 PM,62.6,17.6,18,30.15,10.0,West,15.0,21.9,N/A,,Clear,260,2012-10-09 19:35:00
1:55 PM,62.6,15.8,16,30.14,10.0,WSW,18.4,24.2,N/A,,Clear,240,2012-10-09 19:55:00
2:15 PM,62.6,15.8,16,30.15,10.0,West,18.4,21.9,N/A,,Clear,280,2012-10-09 20:15:00
2:35 PM,64.4,15.8,15,30.14,10.0,West,21.9,26.5,N/A,,Clear,270,2012-10-09 20:35:00
2:55 PM,64.4,15.8,15,30.15,10.0,West,18.4,29.9,N/A,,Clear,270,2012-10-09 20:55:00
3:15 PM,64.4,14.0,14,30.14,10.0,West,17.3,26.5,N/A,,Clear,260,2012-10-09 21:15:00
3:35 PM,64.4,15.8,15,30.15,10.0,West,15.0,24.2,N/A,,Clear,270,2012-10-09 21:35:00
3:55 PM,64.4,14.0,14,30.16,10.0,West,12.7,24.2,N/A,,Clear,260,2012-10-09 21:55:00
4:15 PM,62.6,14.0,15,30.15,10.0,West,17.3,21.9,N/A,,Clear,260,2012-10-09 22:15:00
4:35 PM,62.6,14.0,15,30.16,10.0,WSW,17.3,23.0,N/A,,Clear,250,2012-10-09 22:35:00
4:55 PM,62.6,14.0,15,30.16,10.0,West,13.8,24.2,N/A,,Clear,260,2012-10-09 22:55:00
5:15 PM,62.6,14.0,15,30.16,10.0,WSW,15.0,-,N/A,,Clear,250,2012-10-09 23:15:00
5:35 PM,62.6,14.0,15,30.17,10.0,WNW,13.8,19.6,N/A,,Clear,290,2012-10-09 23:35:00
5:55 PM,60.8,12.2,15,30.17,10.0,WSW,15.0,-,N/A,,Clear,250,2012-10-09 23:55:00
6:15 PM,60.8,14.0,16,30.18,10.0,West,9.2,-,N/A,,Clear,260,2012-10-10 00:15:00
6:35 PM,59.0,14.0,17,30.18,10.0,West,6.9,-,N/A,,Clear,280,2012-10-10 00:35:00
6:55 PM,57.2,14.0,18,30.19,10.0,WNW,8.1,-,N/A,,Clear,290,2012-10-10 00:55:00
7:15 PM,57.2,15.8,20,30.19,10.0,WNW,8.1,-,N/A,,Clear,300,2012-10-10 01:15:00
7:35 PM,53.6,14.0,21,30.20,10.0,Calm,Calm,-,N/A,,Clear,0,2012-10-10 01:35:00
7:55 PM,51.8,12.2,21,30.21,10.0,NW,9.2,-,N/A,,Clear,320,2012-10-10 01:55:00
8:15 PM,48.2,14.0,25,30.22,10.0,Calm,Calm,-,N/A,,Clear,0,2012-10-10 02:15:00
8:35 PM,48.2,14.0,25,30.22,10.0,NW,9.2,-,N/A,,Clear,320,2012-10-10 02:35:00
8:55 PM,46.4,12.2,25,30.23,10.0,North,8.1,-,N/A,,Clear,360,2012-10-10 02:55:00
9:15 PM,44.6,14.0,29,30.24,10.0,Calm,Calm,-,N/A,,Clear,0,2012-10-10 03:15:00
9:35 PM,44.6,15.8,31,30.25,10.0,NNW,4.6,-,N/A,,Clear,340,2012-10-10 03:35:00
9:55 PM,42.8,15.8,34,30.25,10.0,North,3.5,-,N/A,,Clear,10,2012-10-10 03:55:00
10:15 PM,42.8,15.8,34,30.26,10.0,Calm,Calm,-,N/A,,Clear,0,2012-10-10 04:15:00
10:35 PM,41.0,14.0,33,30.26,10.0,Calm,Calm,-,N/A,,Clear,0,2012-10-10 04:35:00
10:55 PM,41.0,15.8,36,30.27,10.0,Calm,Calm,-,N/A,,Clear,0,2012-10-10 04:55:00
11:15 PM,39.2,15.8,39,30.27,10.0,NNE,3.5,-,N/A,,Clear,30,2012-10-10 05:15:00
11:35 PM,39.2,15.8,39,30.28,10.0,North,-9999.0,-,N/A,,Clear,0,2012-10-10 05:35:00
11:55 PM,35.6,15.8,44,30.28,10.0,Calm,Calm,-,N/A,,Clear,0,2012-10-10 05:55:00